EHI
51 53 56 58 60 61 62 64 61 53 42 35 31 28 26 23 18 11 7 6 5 6 6 5 4 3 3 1 0 0 0 0 0 0 0 0 0 0 0 0 0 0 0
53 55 58 62 63 62 62 62 58 48 38 30 26 23 21 18 14 9 6 6 6 6 6 4 3 3 3 2 1 0 0 0 0 0 0 0 0 0 0 0 0 0 0
53 56 60 62 61 59 59 58 52 43 33 26 22 19 16 14 11 8 7 7 6 5 5 4 3 3 3 2 1 0 0 0 0 0 0 0 0 0 0 0 0 0 0
50 52 56 56 55 53 54 52 47 40 31 25 21 18 15 12 9 7 6 7 6 5 4 3 2 2 1 1 0 0 0 0 0 0 0 0 0 0 0 0 0 0 0
47 47 49 49 48 49 49 47 42 36 30 25 21 17 13 8 6 6 5 5 5 4 3 3 2 1 0 0 0 0 0 0 0 0 0 0 0 0 0 0 0 0 0
43 45 46 45 44 46 46 42 37 32 28 24 21 17 11 6 5 6 6 4 3 3 4 4 2 0 0 0 0 0 0 0 0 0 0 0 0 0 0 0 0 0 0
41 42 42 42 41 41 41 38 34 29 26 23 22 17 10 6 6 8 7 5 3 3 4 3 2 0 0 0 0 0 0 0 0 0 0 0 0 0 0 0 0 0 0
39 36 36 38 38 38 37 34 29 25 23 22 20 17 12 8 7 7 7 7 5 4 4 3 2 1 0 0 0 0 0 0 0 0 0 0 0 0 0 0 0 0 0
33 29 28 31 32 33 33 28 23 21 20 18 17 16 14 11 8 6 7 7 6 5 5 4 3 1 1 0 0 0 1 2 1 0 0 0 0 0 0 0 0 0 0
26 22 20 21 24 26 25 21 18 17 16 15 15 15 14 12 9 7 6 6 5 4 5 5 4 3 2 1 0 0 2 3 2 1 0 0 0 0 0 0 0 0 0
20 17 14 15 18 20 19 17 17 16 16 14 14 14 14 13 11 8 6 5 4 4 4 5 5 4 3 1 0 0 1 2 2 1 0 0 0 0 0 0 0 0 0
18 15 13 15 18 19 18 17 16 15 14 13 12 12 12 12 11 9 6 5 5 4 4 4 5 5 3 1 0 0 0 1 1 0 0 0 0 0 0 0 0 0 0
19 18 18 19 19 18 17 15 14 13 12 11 11 11 11 11 10 8 7 6 6 5 4 4 5 5 4 2 1 0 0 0 0 0 0 0 0 0 0 0 0 0 0
18 21 24 23 20 15 12 12 11 11 11 11 11 11 11 10 9 8 7 6 6 5 5 5 5 5 4 2 1 0 0 0 0 0 0 0 0 0 0 0 0 0 0
17 22 26 24 19 13 10 9 10 10 12 12 13 12 12 11 9 8 7 6 6 4 4 4 5 5 3 1 0 0 0 0 0 0 0 0 0 0 0 0 0 0 0
18 21 24 23 20 16 11 9 9 11 13 13 14 14 12 11 9 8 7 7 6 4 3 2 3 4 2 1 0 0 0 0 0 0 0 0 0 0 0 0 0 0 0
22 24 24 22 21 20 14 9 9 11 12 13 13 13 12 10 9 9 8 7 6 5 3 2 2 2 1 0 0 0 0 0 0 0 0 0 0 0 0 0 0 0 0
22 26 25 23 21 20 16 11 9 11 11 11 12 12 11 10 9 9 9 8 6 4 3 2 2 1 0 0 0 0 0 0 0 0 0 0 0 0 0 0 0 0 0
17 20 24 23 21 19 17 12 10 10 11 11 11 11 10 10 9 7 7 6 4 2 1 1 1 0 0 0 0 0 0 0 0 0 0 0 0 0 0 0 0 0 0
12 15 19 20 19 19 17 13 11 11 10 9 9 9 9 8 7 6 5 3 2 1 0 0 0 0 0 0 0 0 0 0 0 0 0 0 0 0 0 0 0 0 0
12 14 16 15 15 16 15 12 10 8 7 7 6 6 6 6 6 5 5 3 1 0 0 0 0 0 0 0 0 0 0 0 0 0 0 0 0 0 0 0 0 0 0
12 14 14 12 10 10 10 8 6 5 4 4 4 4 4 4 4 4 4 3 1 0 0 0 0 0 0 0 0 0 0 0 0 0 0 0 0 0 0 0 0 0 0
11 11 10 8 6 5 4 3 3 2 3 3 3 3 3 3 3 3 3 2 1 0 0 0 0 0 0 0 0 0 0 0 0 0 0 0 0 0 0 0 0 0 0
7 6 5 3 2 1 1 1 1 1 1 2 2 2 2 2 2 2 2 1 0 0 0 0 0 0 0 0 0 0 0 0 0 0 0 0 0 0 0 0 0 0 0
2 1 1 0 0 0 0 0 0 0 0 1 1 1 1 1 1 1 1 0 0 0 0 0 0 0 0 0 0 0 0 0 0 0 0 0 0 0 0 0 0 0 0
0 0 0 0 0 0 0 0 0 0 0 0 0 0 0 0 0 0 0 0 0 0 0 0 0 0 0 0 0 0 0 0 0 0 0 0 0 0 0 0 0 0 0
Wind_Speed
7 7 7 8 8 8 9 11 11 10 9 6 6 6 5 5 5 5 6 7 7 6 5 4 4 4 4 4 4 3 3 2 2 2 2 2 1 1 2 3 3 5 5
7 8 9 9 10 10 10 11 11 10 8 6 5 4 4 4 5 5 5 6 7 7 6 5 5 4 4 4 4 3 3 1 2 3 2 2 3 2 1 2 4 4 4
12 12 10 9 10 10 11 11 10 10 9 7 5 4 3 3 3 4 4 5 7 7 6 6 5 5 5 4 4 4 4 2 1 2 4 3 3 2 2 2 2 3 3
10 10 10 9 10 10 9 9 9 9 9 9 9 9 7 6 5 5 4 5 6 6 6 6 6 5 4 5 4 4 3 4 2 0 1 2 4 3 1 2 2 3 4
10 11 10 10 8 8 9 8 9 8 9 9 10 9 7 5 4 4 5 5 4 6 6 6 5 5 4 5 5 4 4 3 3 2 1 1 1 2 3 2 2 2 2
8 9 8 8 6 7 8 8 9 8 8 9 9 9 9 8 8 7 6 5 4 4 6 6 6 5 4 5 5 5 5 4 3 2 2 2 2 2 3 3 2 2 3
7 8 9 9 8 9 8 8 9 8 8 9 9 9 10 10 10 8 8 7 5 4 6 6 6 5 5 5 5 4 4 4 4 3 2 2 2 3 3 3 2 2 2
7 10 10 10 10 10 9 9 9 8 9 9 9 8 8 7 6 8 7 7 6 6 7 7 7 7 6 6 5 4 4 4 4 4 3 2 2 2 3 4 3 1 1
7 9 9 10 9 9 8 8 8 7 8 9 8 8 8 7 7 7 6 6 5 6 7 8 7 7 7 6 6 4 4 4 4 4 3 2 2 2 2 2 3 4 2
6 7 8 9 8 8 7 6 7 7 7 7 8 8 8 8 7 7 7 7 7 6 8 8 8 7 7 7 6 4 4 5 4 3 4 3 2 1 1 2 2 3 4
6 6 7 8 7 7 6 6 6 6 6 7 7 7 7 7 6 6 7 7 6 7 8 8 8 8 7 7 6 6 5 6 5 4 5 4 3 2 2 1 2 2 3
6 6 7 8 7 7 7 6 6 6 6 6 7 7 7 6 6 6 6 6 6 6 7 8 7 8 7 7 7 7 7 6 6 5 5 5 3 3 2 2 2 2 3
6 7 7 8 8 7 6 6 6 6 5 5 6 7 6 7 7 6 6 6 7 6 7 7 8 7 7 6 6 6 6 6 6 6 6 5 4 4 3 3 3 2 2
7 8 8 8 8 7 7 6 5 5 6 5 6 6 7 7 6 5 5 6 6 7 7 6 6 6 5 5 5 5 5 5 5 5 5 5 5 6 5 4 4 3 2
6 8 9 8 8 7 7 6 6 5 6 5 5 5 5 5 5 5 5 5 5 6 5 5 4 4 4 4 5 5 5 4 4 4 4 5 6 7 5 4 4 3 3
5 7 7 8 9 9 8 7 6 6 6 6 6 5 5 5 5 5 5 5 5 5 5 4 4 3 3 4 6 6 4 4 4 4 3 3 4 5 6 6 6 6 5
3 5 7 7 7 7 8 8 7 6 6 6 6 5 5 5 4 5 5 5 5 4 4 4 4 3 2 3 4 6 4 4 4 4 3 2 2 3 3 4 5 6 7
3 2 3 5 5 6 6 6 6 6 6 6 5 5 6 6 5 4 5 4 4 4 4 4 4 3 2 3 3 4 3 2 2 2 3 2 2 1 2 2 2 3 4
2 1 2 4 5 6 6 6 6 6 6 6 5 5 6 6 5 5 4 4 4 4 3 4 4 4 2 2 3 4 3 2 1 1 1 1 1 1 1 1 2 3 4
3 2 3 5 6 5 6 7 6 6 6 5 5 4 5 5 5 5 4 4 4 4 4 4 3 4 3 3 3 4 2 2 1 1 1 1 0 1 0 1 2 3 4
5 5 5 5 4 5 7 8 6 5 5 5 5 5 4 5 5 5 4 4 5 5 5 5 4 4 4 4 5 4 2 1 1 1 1 1 2 2 2 1 2 3 3
7 6 7 6 5 5 7 9 6 4 5 6 7 6 5 4 4 5 5 5 6 6 5 6 5 4 4 5 5 5 3 3 2 0 0 1 3 3 3 2 1 2 2
7 7 8 9 8 7 7 9 6 6 7 8 7 6 6 6 6 6 6 5 5 5 5 5 4 3 3 4 6 5 4 4 2 1 2 3 3 3 2 3 3 2 1
7 7 10 10 9 8 9 8 7 7 9 9 7 6 7 7 7 5 5 5 4 4 5 4 4 3 3 3 3 3 3 4 3 2 3 4 5 3 2 3 2 1 1
7 8 9 10 9 9 10 8 7 8 10 9 8 7 7 7 8 7 6 6 4 3 5 4 3 4 2 1 2 2 2 2 2 2 3 3 3 4 3 3 2 2 1
8 10 10 10 10 10 10 8 7 8 9 8 7 5 6 6 6 6 7 11 9 10 10 7 5 3 4 4 5 5 5 5 4 4 3 3 2 2 2 2 2 2 2
Wind_Direction
173 163 168 170 161 163 165 165 163 164 157 155 158 157 166 169 164 169 171 170 170 164 155 163 162 154 155 163 156 140 135 130 127 91 44 1 354 199 198 190 186 201 205
163 171 169 169 169 170 169 165 165 162 161 165 162 154 154 165 165 170 176 176 171 166 167 164 168 163 153 153 154 140 130 130 137 128 105 31 350 326 233 206 198 201 194
172 171 167 169 167 170 171 169 164 163 163 158 142 136 128 126 153 172 178 183 175 168 163 169 166 166 161 165 167 153 142 152 163 144 141 147 208 283 314 260 214 193 190
171 168 164 162 174 176 168 161 162 166 168 163 164 167 171 175 181 178 175 177 175 169 168 169 168 166 162 162 172 161 148 142 154 152 170 165 158 150 264 313 280 223 205
173 170 171 170 180 175 168 166 165 170 172 173 175 175 176 174 162 164 167 174 176 173 173 169 166 164 160 165 166 153 152 150 155 163 160 126 115 130 144 223 281 288 247
180 169 163 159 173 178 170 166 170 177 177 177 178 179 174 169 167 173 176 179 175 178 175 172 169 168 166 166 169 167 163 162 156 154 155 156 161 181 163 187 225 244 266
172 165 162 167 176 179 175 172 177 182 181 180 181 180 177 175 177 178 181 179 177 183 188 181 176 176 176 172 167 166 171 170 167 171 176 175 186 174 161 158 190 231 279
175 173 173 174 179 179 175 177 181 185 183 182 183 180 177 179 182 182 180 183 186 188 183 182 181 181 178 177 172 170 179 174 178 183 176 177 197 177 168 164 154 155 304
177 177 175 174 175 176 176 178 178 181 183 182 179 178 180 182 183 181 179 180 182 187 183 181 182 184 181 177 172 178 186 177 185 187 186 188 204 189 183 170 160 156 186
176 177 171 172 174 174 170 173 176 180 182 181 182 183 185 186 183 178 182 184 187 189 178 181 182 184 185 182 177 180 188 184 194 192 190 198 205 196 184 177 172 165 167
180 177 169 168 165 162 164 171 172 172 177 183 183 180 182 183 179 181 184 183 186 184 181 183 183 186 187 184 183 191 189 192 202 201 195 209 201 194 195 174 164 171 161
172 170 164 158 161 165 168 173 176 177 182 183 181 181 179 175 178 182 182 179 182 185 184 182 185 191 189 185 186 197 197 196 203 208 204 216 205 202 204 188 185 189 182
163 156 156 159 163 168 172 177 182 179 174 172 176 178 179 176 181 184 183 182 181 180 182 180 185 188 184 184 189 193 197 200 205 206 205 213 200 211 212 203 202 207 198
171 160 162 163 164 165 169 173 178 177 172 169 168 176 180 178 182 182 180 180 177 176 176 179 181 180 178 183 190 190 196 206 211 208 205 205 200 209 210 209 212 207 202
166 171 170 168 165 166 169 173 175 170 163 160 165 172 168 166 168 172 172 162 160 165 157 155 160 165 170 189 195 191 190 198 211 211 207 208 208 208 207 207 207 199 201
165 168 163 164 170 173 174 175 176 172 160 158 163 162 156 156 159 162 154 144 143 141 139 146 152 160 184 198 193 186 178 188 200 213 219 216 216 219 215 213 205 194 201
137 149 163 165 171 175 172 173 175 165 159 159 159 157 153 148 150 152 141 142 146 143 143 150 151 164 176 170 174 183 176 186 196 208 218 230 227 217 224 229 229 227 226
57 99 142 154 157 158 156 159 159 155 154 152 152 152 151 150 148 141 144 150 145 147 154 154 158 154 157 160 165 169 162 159 178 194 194 200 235 244 213 217 230 246 252
66 91 137 140 138 145 151 144 143 143 142 148 153 158 157 153 152 151 155 152 139 137 140 135 134 131 107 118 152 150 127 129 155 168 150 164 177 260 200 194 248 277 282
47 72 95 102 114 129 136 135 136 136 145 151 150 145 145 143 143 144 142 134 130 136 128 113 109 116 102 82 113 138 122 123 120 62 40 91 143 327 72 189 229 267 279
51 67 82 87 100 117 122 125 128 139 146 129 117 113 121 131 134 131 124 117 115 112 109 101 84 78 75 75 83 96 103 122 112 73 6 344 350 348 329 260 224 246 274
59 67 79 74 69 88 110 111 111 119 110 105 102 99 97 105 107 106 103 102 109 107 103 99 85 66 60 65 71 78 82 90 109 108 295 306 345 358 357 355 309 298 312
67 69 79 74 62 64 86 94 92 93 98 97 93 88 85 83 90 100 103 95 95 102 101 100 95 77 53 51 60 64 64 60 70 24 355 357 360 6 6 6 355 352 1
68 68 74 74 66 62 70 75 79 90 97 97 93 87 84 76 68 71 79 91 93 103 106 107 107 92 60 40 35 41 47 47 48 33 23 19 15 14 356 352 359 2 330
69 70 73 74 70 67 66 64 68 83 89 88 87 85 85 86 77 67 57 69 61 89 114 116 116 108 84 23 54 71 54 46 42 41 40 37 29 23 15 7 355 352 356
77 76 73 71 67 68 64 56 59 76 87 86 84 86 92 93 94 92 72 53 65 70 77 92 104 87 93 91 72 67 68 65 69 70 55 35 25 19 2 350 344 342 327